Location: Mentone
(34.5413°N, 85.5351°W)
Time: 10:09:52
(UTC-05:00)

Cosmos 2150 Rocket - Visible Passes

Search period start: 30 July 2014 00:00
Search period end: 09 August 2014 00:00
Orbit: 750 x 810 km, 74.0° (Epoch: 29 July)

Date Brightness Start Highest point End Pass type
(mag) Time Alt. Az. Time Alt. Az. Time Alt. Az.
30 Jul 6.6 20:41:51 10° NW 20:45:31 19° W 20:49:08 10° SW visible
31 Jul 6.0 20:07:32 10° NW 20:12:12 31° W 20:16:48 10° SSW visible
03 Aug 6.9 20:10:55 10° WNW 20:13:31 14° W 20:16:06 10° SW visible
